Printer-friendly version

IAU Minor Planet Center

Minor Planet Center

MPEC 2008-S65 : 2008 SV11

The following Minor Planet Electronic Circular may be linked-to from your own Web pages, but must not otherwise be redistributed electronically.


Read MPEC 2008-S64 Read MPEC 2008-S66


M.P.E.C. 2008-S65                                Issued 2008 Sept. 26, 17:16 UT

     The Minor Planet Electronic Circulars contain information on unusual
         minor planets and routine data on comets.  They are published
   on behalf of Commission 20 of the International Astronomical Union by the
          Minor Planet Center, Smithsonian Astrophysical Observatory,
                          Cambridge, MA 02138, U.S.A.

             Prepared using the Tamkin Foundation Computer Network

                              MPC@CFA.HARVARD.EDU
          URL http://www.cfa.harvard.edu/iau/mpc.html  ISSN 1523-6714

                                   2008 SV11

Observations:
     K08S11V* C2008 09 25.26245 23 28 05.01 -09 27 00.6          20.7 V ES065G96
     K08S11V  C2008 09 25.27009 23 28 04.22 -09 27 04.1          20.2 V ES065G96
     K08S11V  C2008 09 25.27786 23 28 03.36 -09 27 07.3          20.3 V ES065G96
     K08S11V  C2008 09 25.28556 23 28 02.53 -09 27 10.8          20.5 V ES065G96
     K08S11V  C2008 09 25.33157 23 27 57.50 -09 27 30.8          20.5 V ES065G96
     K08S11V  C2008 09 25.34149 23 27 56.43 -09 27 35.3          20.4 V ES065G96
     K08S11V  C2008 09 25.35149 23 27 55.34 -09 27 39.0          20.1 V ES065G96
     K08S11V  C2008 09 25.37433 23 27 52.88 -09 27 51.1          19.7 V ES065G96
     K08S11V  C2008 09 25.38226 23 27 51.98 -09 27 53.2          20.3 V ES065G96
     K08S11V  C2008 09 25.39018 23 27 51.12 -09 27 56.7          20.6 V ES065G96
     K08S11V  C2008 09 25.39819 23 27 50.25 -09 28 00.6          20.9 V ES065G96
     K08S11V  C2008 09 25.47836 23 27 42.06 -09 28 24.9          20.2 R ES065474
     K08S11V  C2008 09 25.48148 23 27 41.75 -09 28 27.1          20.1 R ES065474
     K08S11V  C2008 09 25.48345 23 27 41.54 -09 28 27.3          20.0 R ES065474
     K08S11V  C2008 09 25.48553 23 27 41.30 -09 28 28.2          19.9 R ES065474
     K08S11V  C2008 09 25.63412 23 27 25.22 -09 29 34.7                 ES065E10
     K08S11V  C2008 09 25.63522 23 27 25.11 -09 29 35.3                 ES065E10
     K08S11V  C2008 09 25.63638 23 27 25.00 -09 29 35.6                 ES065E10
     K08S11V  C2008 09 25.63756 23 27 24.86 -09 29 36.1                 ES065E10
     K08S11V  C2008 09 26.12987 23 26 32.88 -09 33 20.1          20.9 V ES065H55
     K08S11V  C2008 09 26.13759 23 26 32.04 -09 33 23.6          20.6 V ES065H55
     K08S11V  C2008 09 26.14532 23 26 31.18 -09 33 27.0          20.7 V ES065H55
     K08S11V  C2008 09 26.25166 23 26 19.74 -09 34 12.3          20.4 V ES065291
     K08S11V  C2008 09 26.25547 23 26 19.31 -09 34 14.0          20.4 V ES065291
     K08S11V  C2008 09 26.26012 23 26 18.79 -09 34 15.8          20.5 V ES065291

Observer details:
291 LPL/Spacewatch II.  Observer R. S. McMillan.  1.8-m f/2.7 reflector + CCD.
474 Mount John Observatory, Lake Tekapo.  Observer A. C. Gilmore.  Measurer
    P. M. Kilmartin.  1.0-m f/7.7 reflector + CCD.
E10 Siding Spring-Faulkes Telescope South.  Observers A. Fitzsimmons, S. Duddy,
    H. Hsieh.  Measurer A. Fitzsimmons.  2.0-m f/10.0 reflector + CCD.
G96 Mt. Lemmon Survey.  Observer A. D. Grauer.  Measurers E. C. Beshore,
    A. Boattini, G. J. Garradd, A. R. Gibbs, A. D. Grauer, R. E. Hill,
    R. A. Kowalski, S. M. Larson, R. H. McNaught.  1.5-m reflector + CCD.
H55 Astronomical Research Observatory, Charleston.  Observer R. Holmes.
    Measurer H. Devore.  0.61-m f/4.0 astrograph + CCD.

Orbital elements:
2008 SV11                                           PHA, Earth MOID = 0.0212 AU
Epoch 2008 Nov. 30.0 TT = JDT 2454800.5                 MPC
M 333.21989              (2000.0)            P               Q
n   0.30735806     Peri.  103.90272     -0.51509184     -0.85623152
a   2.1745679      Node    17.27093     +0.72632917     -0.46039713
e   0.6494533      Incl.    7.61533     +0.45511134     -0.23431190
P   3.21           H   18.3           G   0.15           U   9
Residuals in seconds of arc
080925 G96  0.6-  0.2+    080925 G96  0.1+  0.1-    080925 E10  0.0   0.2+
080925 G96  0.1+  0.0     080925 G96  0.1+  0.5-    080926 H55  0.2+  0.1+
080925 G96  0.1-  0.2+    080925 474  0.5-  0.3+    080926 H55  0.2+  0.0
080925 G96  0.1+  0.1+    080925 474  0.0   0.6-    080926 H55  0.0   0.1-
080925 G96  0.0   0.3+    080925 474  0.0   0.1+    080926 291  0.1+  0.0
080925 G96  0.2+  0.1+    080925 474  0.2-  0.1+    080926 291  0.0   0.1-
080925 G96  0.2+  0.8+    080925 E10  0.3-  0.1+    080926 291  0.2-  0.1+
080925 G96  0.6+  1.4-    080925 E10  0.1-  0.0
080925 G96  0.1+  0.1-    080925 E10  0.1+  0.2+

Ephemeris:
2008 SV11                a,e,i = 2.17, 0.65, 8                   q = 0.7623
Date    TT    R. A. (2000) Decl.     Delta      r     Elong.  Phase     V
2008 09 21    23 35.54   -08 54.8    1.064    2.061   170.6     4.6    20.4
2008 10 01    23 17.86   -10 06.7    1.017    1.980   157.7    11.1    20.5
2008 10 11    23 00.72   -11 00.1    0.996    1.896   144.0    18.0    20.6
2008 10 21    22 46.21   -11 27.0    0.995    1.810   130.7    24.6    20.7
2008 10 31    22 35.81   -11 24.5    1.009    1.720   118.5    30.5    20.8
2008 11 10    22 30.22   -10 53.2    1.030    1.628   107.4    35.5    20.9
2008 11 20    22 29.44   -09 55.9    1.052    1.534    97.5    39.7    20.9
2008 11 30    22 33.10   -08 34.6    1.068    1.437    88.7    43.3    20.9
2008 12 10    22 40.77   -06 50.4    1.074    1.338    81.0    46.6    20.9
2008 12 20    22 51.94   -04 43.7    1.068    1.239    74.2    49.8    20.8
2008 12 30    23 06.29   -02 13.9    1.046    1.140    68.3    53.3    20.6
2009 01 09    23 23.57   +00 39.7    1.006    1.043    63.2    57.3    20.5

Sonia Keys                   (C) Copyright 2008 MPC           M.P.E.C. 2008-S65

Read MPEC 2008-S64 Read MPEC 2008-S66


Our Web policy. Index to the CBAT/MPC/ICQ pages.


Valid HTML 4.01!